Schneifelwetter: Wetterstation Hallschlag, 537 m . NN
Wetterdaten: Samstag, 12.11.2011
Datum Zeit Temp. A. Feuchte A. Luftdruck Regen Wind Richtung Richtung Sonnenschein Helligkeit T Regen Taupunkt Windchill
12.11.2011 00:00 -1,0 C 96 % 1022 hPa 0,0 l/m 1,0 km/h (0 Bft) O-SO 110 0 min 0 lux 0 min -1,6 C -1,0 C
12.11.2011 00:15 -1,3 C 96 % 1023 hPa 0,0 l/m 0,0 km/h (0 Bft) O-SO 105 0 min 0 lux 0 min -1,9 C -1,3 C
12.11.2011 00:30 -1,5 C 96 % 1023 hPa 0,0 l/m 3,6 km/h (1 Bft) O-SO 105 0 min 0 lux 0 min -2,1 C -1,5 C
12.11.2011 00:45 -1,6 C 96 % 1022 hPa 0,0 l/m 3,1 km/h (1 Bft) O-SO 105 0 min 0 lux 0 min -2,2 C -1,6 C
12.11.2011 01:00 -1,7 C 96 % 1022 hPa 0,0 l/m 1,9 km/h (1 Bft) O-SO 105 0 min 0 lux 0 min -2,3 C -1,7 C
12.11.2011 01:15 -1,9 C 96 % 1022 hPa 0,0 l/m 0,4 km/h (0 Bft) O-SO 105 0 min 0 lux 0 min -2,5 C -1,9 C
12.11.2011 01:30 -2,2 C 96 % 1023 hPa 0,0 l/m 0,3 km/h (0 Bft) O-SO 105 0 min 0 lux 0 min -2,7 C -2,2 C
12.11.2011 01:46 -2,0 C 96 % 1023 hPa 0,0 l/m 6,8 km/h (2 Bft) N-NO 20 0 min 0 lux 0 min -2,6 C -2,4 C
12.11.2011 02:01 -2,0 C 96 % 1023 hPa 0,0 l/m 0,3 km/h (0 Bft) N-NO 20 0 min 0 lux 0 min -2,6 C -2,0 C
12.11.2011 02:16 -2,2 C 96 % 1023 hPa 0,0 l/m 3,8 km/h (1 Bft) N-NO 20 0 min 0 lux 0 min -2,7 C -2,2 C
12.11.2011 02:31 -2,6 C 96 % 1023 hPa 0,0 l/m 0,0 km/h (0 Bft) N-NO 20 0 min 0 lux 0 min -3,1 C -2,6 C
12.11.2011 02:46 -2,5 C 97 % 1023 hPa 0,0 l/m 8,0 km/h (2 Bft) N-NO 20 0 min 0 lux 0 min -2,9 C -4,3 C
12.11.2011 03:00 -2,4 C 97 % 1023 hPa 0,0 l/m 5,7 km/h (1 Bft) N-NO 20 0 min 0 lux 0 min -2,8 C -2,4 C
12.11.2011 03:15 -2,9 C 96 % 1023 hPa 0,0 l/m 3,7 km/h (1 Bft) N-NO 20 0 min 0 lux 0 min -3,4 C -2,9 C
12.11.2011 03:30 -3,0 C 96 % 1023 hPa 0,0 l/m 4,0 km/h (1 Bft) N-NO 15 0 min 0 lux 0 min -3,5 C -3,0 C
12.11.2011 03:45 -3,3 C 96 % 1023 hPa 0,0 l/m 2,4 km/h (1 Bft) N-NO 15 0 min 0 lux 0 min -3,8 C -3,3 C
12.11.2011 04:00 -3,5 C 97 % 1023 hPa 0,0 l/m 0,0 km/h (0 Bft) N-NO 15 0 min 0 lux 0 min -3,9 C -3,5 C
12.11.2011 04:15 -3,6 C 97 % 1023 hPa 0,0 l/m 0,0 km/h (0 Bft) N-NO 15 0 min 0 lux 0 min -4,0 C -3,6 C
12.11.2011 04:30 -3,8 C 97 % 1024 hPa 0,0 l/m 0,0 km/h (0 Bft) N-NO 15 0 min 0 lux 0 min -4,2 C -3,8 C
12.11.2011 04:45 -3,9 C 97 % 1024 hPa 0,0 l/m 0,0 km/h (0 Bft) N-NO 15 0 min 0 lux 0 min -4,3 C -3,9 C
12.11.2011 05:00 -4,0 C 97 % 1024 hPa 0,0 l/m 0,0 km/h (0 Bft) N-NO 15 0 min 0 lux 0 min -4,4 C -4,0 C
12.11.2011 05:15 -4,0 C 97 % 1024 hPa 0,0 l/m 5,4 km/h (1 Bft) N-NW45 340 0 min 0 lux 0 min -4,4 C -4,0 C
12.11.2011 05:30 -3,7 C 97 % 1024 hPa 0,0 l/m 7,9 km/h (2 Bft) W 275 0 min 0 lux 0 min -4,1 C -5,4 C
12.11.2011 05:45 -3,5 C 98 % 1024 hPa 0,0 l/m 0,9 km/h (0 Bft) W 275 0 min 0 lux 0 min -3,8 C -3,5 C
12.11.2011 06:00 -3,4 C 98 % 1024 hPa 0,0 l/m 4,2 km/h (1 Bft) W 275 0 min 0 lux 0 min -3,7 C -3,4 C
12.11.2011 06:15 -3,7 C 97 % 1025 hPa 0,0 l/m 0,0 km/h (0 Bft) W 275 0 min 0 lux 0 min -4,1 C -3,7 C
12.11.2011 06:30 -3,9 C 97 % 1025 hPa 0,0 l/m 0,0 km/h (0 Bft) W 275 0 min 0 lux 0 min -4,3 C -3,9 C
12.11.2011 06:45 -4,1 C 97 % 1025 hPa 0,0 l/m 0,0 km/h (0 Bft) W 275 0 min 0 lux 0 min -4,5 C -4,1 C
12.11.2011 07:00 -4,2 C 97 % 1025 hPa 0,0 l/m 0,0 km/h (0 Bft) W 275 0 min 0 lux 0 min -4,6 C -4,2 C
12.11.2011 07:15 -4,2 C 97 % 1025 hPa 0,0 l/m 0,0 km/h (0 Bft) W 275 0 min 0 lux 0 min -4,6 C -4,2 C
12.11.2011 07:30 -4,2 C 97 % 1025 hPa 0,0 l/m 0,0 km/h (0 Bft) W 275 0 min 312 lux 0 min -4,6 C -4,2 C
12.11.2011 07:45 -4,2 C 97 % 1025 hPa 0,0 l/m 1,5 km/h (1 Bft) W 275 0 min 750 lux 0 min -4,6 C -4,2 C
12.11.2011 08:00 -4,0 C 97 % 1025 hPa 0,0 l/m 4,0 km/h (1 Bft) W 275 0 min 1,60 klux 0 min -4,4 C -4,0 C
12.11.2011 08:15 -3,4 C 98 % 1025 hPa 0,0 l/m 3,4 km/h (1 Bft) W 275 0 min 5,45 klux 0 min -3,7 C -3,4 C
12.11.2011 08:30 -3,4 C 98 % 1026 hPa 0,0 l/m 0,0 km/h (0 Bft) W 275 0 min 10,9 klux 0 min -3,7 C -3,4 C
12.11.2011 08:45 -3,2 C 98 % 1026 hPa 0,0 l/m 0,0 km/h (0 Bft) W 270 0 min 15,9 klux 0 min -3,5 C -3,2 C
12.11.2011 09:00 -2,8 C 98 % 1026 hPa 0,0 l/m 0,0 km/h (0 Bft) W 275 0 min 20,8 klux 0 min -3,1 C -2,8 C
12.11.2011 09:15 -2,2 C 98 % 1026 hPa 0,0 l/m 0,0 km/h (0 Bft) W 270 0 min 24,2 klux 0 min -2,5 C -2,2 C
12.11.2011 09:30 -1,5 C 98 % 1026 hPa 0,0 l/m 0,0 km/h (0 Bft) W 270 0 min 26,5 klux 0 min -1,8 C -1,5 C
12.11.2011 09:45 -0,9 C 98 % 1026 hPa 0,0 l/m 0,0 km/h (0 Bft) W 270 0 min 29,0 klux 0 min -1,2 C -0,9 C
12.11.2011 10:00 0,1 C 99 % 1026 hPa 0,0 l/m 0,0 km/h (0 Bft) W 270 0 min 31,1 klux 0 min -0,0 C 0,1 C
12.11.2011 10:15 1,0 C 99 % 1026 hPa 0,0 l/m 0,0 km/h (0 Bft) W 275 0 min 33,8 klux 0 min 0,9 C 1,0 C
12.11.2011 10:30 2,1 C 99 % 1026 hPa 0,0 l/m 0,0 km/h (0 Bft) W 270 0 min 35,4 klux 0 min 2,0 C 2,1 C
12.11.2011 10:45 3,3 C 99 % 1027 hPa 0,0 l/m 8,7 km/h (2 Bft) W-SW22.5 250 0 min 37,8 klux 0 min 3,2 C 1,2 C
12.11.2011 11:00 4,5 C 99 % 1027 hPa 0,0 l/m 4,0 km/h (1 Bft) W-SW 255 0 min 39,2 klux 0 min 4,4 C 4,5 C
12.11.2011 11:15 5,6 C 99 % 1027 hPa 0,0 l/m 0,0 km/h (0 Bft) W-SW 250 15 min 40,3 klux 0 min 5,5 C 5,6 C
12.11.2011 11:30 6,5 C 99 % 1027 hPa 0,0 l/m 11,1 km/h (2 Bft) W-SW22.5 255 15 min 41,3 klux 0 min 6,4 C 3,0 C
12.11.2011 11:45 7,2 C 99 % 1027 hPa 0,0 l/m 12,5 km/h (3 Bft) W-SW22.5 250 15 min 42,4 klux 0 min 7,1 C 3,0 C
12.11.2011 12:00 7,7 C 97 % 1027 hPa 0,0 l/m 10,5 km/h (2 Bft) W-SW22.5 250 15 min 42,8 klux 0 min 7,3 C 4,7 C
12.11.2011 12:15 8,2 C 97 % 1027 hPa 0,0 l/m 7,6 km/h (2 Bft) W-SW22.5 255 15 min 42,8 klux 0 min 7,8 C 7,3 C
12.11.2011 12:30 8,7 C 96 % 1027 hPa 0,0 l/m 4,6 km/h (1 Bft) W-SW22.5 240 15 min 42,8 klux 0 min 8,1 C 8,7 C
12.11.2011 12:45 9,1 C 95 % 1027 hPa 0,0 l/m 1,5 km/h (1 Bft) W-SW 255 15 min 42,7 klux 0 min 8,3 C 9,1 C
12.11.2011 13:00 9,6 C 93 % 1027 hPa 0,0 l/m 9,1 km/h (2 Bft) S22.5 170 15 min 42,3 klux 0 min 8,5 C 7,7 C
12.11.2011 13:15 10,0 C 92 % 1027 hPa 0,0 l/m 6,5 km/h (2 Bft) S-SO22.5 155 15 min 41,6 klux 0 min 8,8 C 10,0 C
12.11.2011 13:30 10,4 C 91 % 1027 hPa 0,0 l/m 6,8 km/h (2 Bft) S-SO 160 15 min 40,7 klux 0 min 9,0 C 10,1 C
12.11.2011 13:46 10,5 C 89 % 1027 hPa 0,0 l/m 7,3 km/h (2 Bft) SO22.5 140 16 min 39,5 klux 0 min 8,8 C 9,9 C
12.11.2011 14:00 10,6 C 88 % 1027 hPa 0,0 l/m 8,5 km/h (2 Bft) S22.5 170 0 min 38,4 klux 0 min 8,7 C 9,2 C
12.11.2011 14:15 10,8 C 88 % 1027 hPa 0,0 l/m 7,9 km/h (2 Bft) S22.5 185 0 min 36,7 klux 0 min 8,9 C 9,8 C
12.11.2011 14:30 11,1 C 86 % 1027 hPa 0,0 l/m 8,7 km/h (2 Bft) S-SO22.5 165 0 min 34,6 klux 0 min 8,8 C 9,6 C
12.11.2011 14:45 11,0 C 85 % 1027 hPa 0,0 l/m 10,8 km/h (2 Bft) S-SO 165 0 min 32,7 klux 0 min 8,6 C 8,3 C
12.11.2011 15:00 10,9 C 85 % 1027 hPa 0,0 l/m 7,8 km/h (2 Bft) S-SO22.5 165 0 min 30,0 klux 0 min 8,5 C 9,9 C
12.11.2011 15:16 10,7 C 85 % 1027 hPa 0,0 l/m 4,8 km/h (1 Bft) S 185 0 min 27,8 klux 0 min 8,3 C 10,7 C
12.11.2011 15:30 10,4 C 84 % 1027 hPa 0,0 l/m 9,6 km/h (2 Bft) S22.5 190 0 min 24,4 klux 0 min 7,8 C 8,3 C
12.11.2011 15:45 10,0 C 85 % 1028 hPa 0,0 l/m 7,4 km/h (2 Bft) S-SW22.5 195 0 min 20,3 klux 0 min 7,6 C 9,3 C
12.11.2011 16:00 9,6 C 86 % 1028 hPa 0,0 l/m 3,9 km/h (1 Bft) S 170 0 min 16,6 klux 0 min 7,4 C 9,6 C
12.11.2011 16:15 9,0 C 86 % 1028 hPa 0,0 l/m 11,0 km/h (2 Bft) W-SW22.5 255 0 min 12,0 klux 0 min 6,8 C 5,9 C
12.11.2011 16:30 8,3 C 86 % 1028 hPa 0,0 l/m 11,8 km/h (2 Bft) W22.5 260 0 min 7,70 klux 0 min 6,1 C 4,7 C
12.11.2011 16:46 7,6 C 88 % 1028 hPa 0,0 l/m 10,3 km/h (2 Bft) W-SW 250 0 min 2,35 klux 0 min 5,7 C 4,8 C
12.11.2011 17:00 7,0 C 87 % 1028 hPa 0,0 l/m 7,8 km/h (2 Bft) W-SW 245 0 min 917 lux 0 min 5,0 C 5,9 C
12.11.2011 17:15 6,0 C 88 % 1028 hPa 0,0 l/m 3,0 km/h (1 Bft) W-SW 245 0 min 222 lux 0 min 4,2 C 6,0 C
12.11.2011 17:30 5,4 C 89 % 1028 hPa 0,0 l/m 0,0 km/h (0 Bft) W-SW 240 0 min 24 lux 0 min 3,7 C 5,4 C
12.11.2011 17:45 4,8 C 90 % 1028 hPa 0,0 l/m 0,0 km/h (0 Bft) W-SW 245 0 min 3 lux 0 min 3,3 C 4,8 C
12.11.2011 18:00 4,5 C 91 % 1029 hPa 0,0 l/m 0,0 km/h (0 Bft) W-SW 245 0 min 0 lux 0 min 3,2 C 4,5 C
12.11.2011 18:16 4,0 C 92 % 1028 hPa 0,0 l/m 0,0 km/h (0 Bft) W-SW 245 0 min 0 lux 0 min 2,8 C 4,0 C
12.11.2011 18:30 3,7 C 92 % 1029 hPa 0,0 l/m 0,0 km/h (0 Bft) W-SW 245 0 min 0 lux 0 min 2,5 C 3,7 C
12.11.2011 18:45 3,5 C 93 % 1028 hPa 0,0 l/m 3,8 km/h (1 Bft) W-SW 250 0 min 0 lux 0 min 2,5 C 3,5 C
12.11.2011 19:00 3,4 C 94 % 1028 hPa 0,0 l/m 0,9 km/h (0 Bft) S-SW 200 0 min 0 lux 0 min 2,5 C 3,4 C
12.11.2011 19:15 3,3 C 94 % 1029 hPa 0,0 l/m 5,7 km/h (1 Bft) N-NO 15 0 min 0 lux 0 min 2,4 C 3,3 C
12.11.2011 19:30 3,1 C 95 % 1029 hPa 0,0 l/m 0,0 km/h (0 Bft) N 5 0 min 0 lux 0 min 2,4 C 3,1 C
12.11.2011 19:46 2,7 C 94 % 1028 hPa 0,0 l/m 0,0 km/h (0 Bft) N 5 0 min 0 lux 0 min 1,8 C 2,7 C
12.11.2011 20:00 2,2 C 94 % 1028 hPa 0,0 l/m 0,0 km/h (0 Bft) W 275 0 min 0 lux 0 min 1,3 C 2,2 C
12.11.2011 20:15 1,7 C 94 % 1029 hPa 0,0 l/m 0,0 km/h (0 Bft) W 275 0 min 0 lux 0 min 0,8 C 1,7 C
12.11.2011 20:30 1,2 C 94 % 1029 hPa 0,0 l/m 0,0 km/h (0 Bft) W 275 0 min 0 lux 0 min 0,3 C 1,2 C
12.11.2011 20:45 1,2 C 95 % 1029 hPa 0,0 l/m 0,0 km/h (0 Bft) W 275 0 min 0 lux 0 min 0,5 C 1,2 C
12.11.2011 21:00 0,7 C 95 % 1029 hPa 0,0 l/m 0,0 km/h (0 Bft) W 275 0 min 0 lux 0 min -0,0 C 0,7 C
12.11.2011 21:16 0,5 C 95 % 1029 hPa 0,0 l/m 0,0 km/h (0 Bft) W 275 0 min 0 lux 0 min -0,2 C 0,5 C
12.11.2011 21:30 0,5 C 95 % 1029 hPa 0,0 l/m 0,0 km/h (0 Bft) W 275 0 min 0 lux 0 min -0,2 C 0,5 C
12.11.2011 21:45 0,4 C 96 % 1029 hPa 0,0 l/m 0,0 km/h (0 Bft) W 275 0 min 0 lux 0 min -0,2 C 0,4 C
12.11.2011 22:00 0,3 C 96 % 1029 hPa 0,0 l/m 0,0 km/h (0 Bft) W 275 0 min 0 lux 0 min -0,3 C 0,3 C
12.11.2011 22:15 0,1 C 96 % 1029 hPa 0,0 l/m 0,0 km/h (0 Bft) W 275 0 min 0 lux 0 min -0,5 C 0,1 C
12.11.2011 22:30 -0,2 C 96 % 1029 hPa 0,0 l/m 0,0 km/h (0 Bft) W 275 0 min 0 lux 0 min -0,8 C -0,2 C
12.11.2011 22:45 -0,3 C 96 % 1029 hPa 0,0 l/m 0,0 km/h (0 Bft) W 275 0 min 0 lux 0 min -0,9 C -0,3 C
12.11.2011 23:00 -0,4 C 96 % 1029 hPa 0,0 l/m 0,0 km/h (0 Bft) W 275 0 min 0 lux 0 min -1,0 C -0,4 C
12.11.2011 23:15 -0,5 C 96 % 1029 hPa 0,0 l/m 0,0 km/h (0 Bft) W 275 0 min 0 lux 0 min -1,1 C -0,5 C
12.11.2011 23:30 -0,6 C 96 % 1029 hPa 0,0 l/m 0,0 km/h (0 Bft) W 275 0 min 0 lux 0 min -1,2 C -0,6 C
12.11.2011 23:45 -0,6 C 96 % 1029 hPa 0,0 l/m 0,0 km/h (0 Bft) W 275 0 min 0 lux 0 min -1,2 C -0,6 C
_ Min-Zeit 07:00 15:30 00:00 - 00:15 - - - - - 07:00 05:30
Minimum _ -4,2 C 84 % 1022 hPa - 0,0 km/h (0 Bft) - - - - - -4,6 C -5,4 C
_ Max-Zeit 14:30 10:00 18:00 00:00 11:45 - - 13:46 12:00 00:00 13:30 15:16
Maximum _ 11,1 C 99 % 1029 hPa 0,0 l/m 12,5 km/h
W-SW (3 Bft)
- - 16 min 42,8 klux 0 min 9,0 C 10,7 C
Durchschnitt _ 1,7 C 95 % 1026 hPa #0,0 l/m 3,0 km/h (1 Bft) W-SW - #2:46 h 11,0 klux #0 min. 0,9 C 1,3 C